Climatologie pour Saint-Brevin les Pins
Jour • Résumé pour janvier 18, 2017 Système :  Métrique    Anglais   Mixte
« - 1 jour
+ 1 jour »
Jour Semaine Mois Année Personnalisé
  Maximum : Minimum : Moyenne :
Température sous abri : 5.0 °C -3.0 °C -0 °C
Point de rosée : -3.4 °C -5.6 °C -4.4 °C
Humidité : 88 % 48 % 73 %
Vitesse du vent : 25.7 km/h 1.6 km/h 9.5 km/h
Rafale : 37.0 km/h - -
Direction :- - ENE
Pression : 1033.7 hPa 1030.0 hPa -
Précipitations : 0.0 mm    
Historical Graphs
 
 
Tableau de données pour janvier 18, 2017
Heure Tempé Pt rosée Pression Vent Vitesse Rafale Humidité Taux pluie (/hr) Soleil
00:00 -0.1 °C -4.1 °C 1033.4 hPa NNE 1.6 km/h 12.9 km/h 74 % 0.0 mm 0 W/m2
00:05 -0.2 °C -4.2 °C 1033.4 hPa NNE 11.3 km/h 14.5 km/h 74 % 0.0 mm 0 W/m2
00:10 -0.3 °C -4.2 °C 1033.4 hPa North 9.7 km/h 14.5 km/h 75 % 0.0 mm 0 W/m2
00:15 -0.4 °C -4.3 °C 1033.1 hPa NNE 6.4 km/h 14.5 km/h 75 % 0.0 mm 0 W/m2
00:20 -0.4 °C -4.2 °C 1033.1 hPa NNE 4.8 km/h 14.5 km/h 76 % 0.0 mm 0 W/m2
00:25 -0.4 °C -4.3 °C 1033.4 hPa ENE 6.4 km/h 16.1 km/h 75 % 0.0 mm 0 W/m2
00:30 -0.4 °C -4.3 °C 1033.1 hPa ENE 3.2 km/h 16.1 km/h 75 % 0.0 mm 0 W/m2
00:35 -0.3 °C -4.4 °C 1033.1 hPa NE 3.2 km/h 14.5 km/h 74 % 0.0 mm 0 W/m2
00:40 -0.3 °C -4.4 °C 1033.1 hPa NE 3.2 km/h 16.1 km/h 74 % 0.0 mm 0 W/m2
00:45 -0.3 °C -4.4 °C 1033.4 hPa NNE 8.0 km/h 16.1 km/h 74 % 0.0 mm 0 W/m2
00:50 -0.3 °C -4.4 °C 1033.1 hPa NE 6.4 km/h 16.1 km/h 74 % 0.0 mm 0 W/m2
00:55 -0.3 °C -4.4 °C 1033.1 hPa NNE 4.8 km/h 16.1 km/h 74 % 0.0 mm 0 W/m2
01:00 -0.3 °C -4.5 °C 1033.1 hPa ENE 8.0 km/h 22.5 km/h 73 % 0.0 mm 0 W/m2
01:05 -0.1 °C -4.4 °C 1033.4 hPa East 9.7 km/h 22.5 km/h 73 % 0.0 mm 0 W/m2
01:10 -0.1 °C -4.4 °C 1033.4 hPa East 11.3 km/h 16.1 km/h 73 % 0.0 mm 0 W/m2
01:15 -0.1 °C -4.4 °C 1033.4 hPa NE 14.5 km/h 17.7 km/h 73 % 0.0 mm 0 W/m2
01:20 -0.2 °C -4.2 °C 1033.4 hPa NE 6.4 km/h 17.7 km/h 74 % 0.0 mm 0 W/m2
01:25 -0.4 °C -4.5 °C 1033.4 hPa NE 6.4 km/h 17.7 km/h 74 % 0.0 mm 0 W/m2
01:30 -0.4 °C -4.3 °C 1033.4 hPa NNE 8.0 km/h 17.7 km/h 75 % 0.0 mm 0 W/m2
01:35 -0.4 °C -4.3 °C 1033.4 hPa East 11.3 km/h 17.7 km/h 75 % 0.0 mm 0 W/m2
01:40 -0.5 °C -4.4 °C 1033.4 hPa ENE 6.4 km/h 17.7 km/h 75 % 0.0 mm 0 W/m2
01:45 -0.6 °C -4.5 °C 1033.4 hPa NE 4.8 km/h 16.1 km/h 75 % 0.0 mm 0 W/m2
01:50 -0.7 °C -4.4 °C 1033.4 hPa ENE 1.6 km/h 14.5 km/h 76 % 0.0 mm 0 W/m2
01:55 -0.9 °C -4.5 °C 1033.4 hPa East 1.6 km/h 14.5 km/h 77 % 0.0 mm 0 W/m2
02:00 -1.0 °C -4.4 °C 1033.4 hPa ENE 1.6 km/h 16.1 km/h 78 % 0.0 mm 0 W/m2
02:05 -1.1 °C -4.4 °C 1033.4 hPa ENE 3.2 km/h 16.1 km/h 78 % 0.0 mm 0 W/m2
02:10 -1.1 °C -4.3 °C 1033.4 hPa ENE 8.0 km/h 16.1 km/h 79 % 0.0 mm 0 W/m2
02:15 -1.2 °C -4.3 °C 1033.7 hPa East 3.2 km/h 16.1 km/h 79 % 0.0 mm 0 W/m2
02:20 -1.2 °C -4.2 °C 1033.7 hPa East 11.3 km/h 12.9 km/h 80 % 0.0 mm 0 W/m2
02:25 -1.2 °C -4.2 °C 1033.7 hPa East 3.2 km/h 12.9 km/h 80 % 0.0 mm 0 W/m2
02:30 -1.3 °C -4.3 °C 1033.4 hPa ENE 1.6 km/h 12.9 km/h 80 % 0.0 mm 0 W/m2
02:35 -1.5 °C -4.3 °C 1033.4 hPa ENE 1.6 km/h 12.9 km/h 81 % 0.0 mm 0 W/m2
02:40 -1.6 °C -4.2 °C 1033.7 hPa ENE 6.4 km/h 12.9 km/h 82 % 0.0 mm 0 W/m2
02:45 -1.7 °C -4.2 °C 1033.7 hPa ENE 3.2 km/h 14.5 km/h 83 % 0.0 mm 0 W/m2
02:55 -1.7 °C -4.0 °C 1033.7 hPa East 4.8 km/h 16.1 km/h 84 % 0.0 mm 0 W/m2
03:00 -1.7 °C -4.0 °C 1033.7 hPa ENE 11.3 km/h 14.5 km/h 84 % 0.0 mm 0 W/m2
03:05 -1.7 °C -4.0 °C 1033.7 hPa East 4.8 km/h 16.1 km/h 84 % 0.0 mm 0 W/m2
03:10 -1.8 °C -4.1 °C 1033.4 hPa ENE 4.8 km/h 16.1 km/h 84 % 0.0 mm 0 W/m2
03:15 -1.8 °C -4.0 °C 1033.4 hPa East 4.8 km/h 16.1 km/h 85 % 0.0 mm 0 W/m2
03:20 -1.8 °C -4.0 °C 1033.7 hPa East 3.2 km/h 12.9 km/h 85 % 0.0 mm 0 W/m2
03:25 -2.0 °C -4.2 °C 1033.7 hPa ENE 1.6 km/h 12.9 km/h 85 % 0.0 mm 0 W/m2
03:30 -2.2 °C -4.2 °C 1033.7 hPa NE 6.4 km/h 8.0 km/h 86 % 0.0 mm 0 W/m2
03:35 -2.3 °C -4.1 °C 1033.7 hPa NNE 3.2 km/h 8.0 km/h 87 % 0.0 mm 0 W/m2
03:40 -2.3 °C -4.2 °C 1033.7 hPa NE 3.2 km/h 11.3 km/h 87 % 0.0 mm 0 W/m2
03:45 -2.3 °C -4.1 °C 1033.7 hPa NE 3.2 km/h 12.9 km/h 88 % 0.0 mm 0 W/m2
03:50 -2.3 °C -4.0 °C 1033.7 hPa NE 8.0 km/h 12.9 km/h 88 % 0.0 mm 0 W/m2
03:55 -2.2 °C -4.1 °C 1033.7 hPa ENE 11.3 km/h 16.1 km/h 87 % 0.0 mm 0 W/m2
04:00 -2.2 °C -3.9 °C 1033.4 hPa ENE 8.0 km/h 16.1 km/h 88 % 0.0 mm 0 W/m2
04:05 -2.2 °C -4.1 °C 1033.4 hPa ENE 8.0 km/h 16.1 km/h 87 % 0.0 mm 0 W/m2
04:10 -2.2 °C -4.0 °C 1033.4 hPa ENE 6.4 km/h 17.7 km/h 87 % 0.0 mm 0 W/m2
04:15 -2.1 °C -4.0 °C 1033.4 hPa NE 1.6 km/h 17.7 km/h 87 % 0.0 mm 0 W/m2
04:20 -2.1 °C -3.9 °C 1033.4 hPa ENE 14.5 km/h 16.1 km/h 87 % 0.0 mm 0 W/m2
04:25 -2.1 °C -4.0 °C 1033.4 hPa ENE 8.0 km/h 19.3 km/h 87 % 0.0 mm 0 W/m2
04:30 -2.2 °C -4.0 °C 1033.4 hPa ENE 12.9 km/h 19.3 km/h 87 % 0.0 mm 0 W/m2
04:35 -2.1 °C -4.0 °C 1033.1 hPa ENE 4.8 km/h 17.7 km/h 87 % 0.0 mm 0 W/m2
04:40 -2.2 °C -4.2 °C 1033.1 hPa NE 9.7 km/h 19.3 km/h 86 % 0.0 mm 0 W/m2
04:45 -2.2 °C -4.2 °C 1033.1 hPa NE 4.8 km/h 19.3 km/h 86 % 0.0 mm 0 W/m2
04:50 -2.2 °C -4.2 °C 1033.1 hPa NE 6.4 km/h 16.1 km/h 86 % 0.0 mm 0 W/m2
04:55 -2.2 °C -4.2 °C 1033.1 hPa NE 8.0 km/h 14.5 km/h 86 % 0.0 mm 0 W/m2
05:00 -2.3 °C -4.1 °C 1033.1 hPa NE 11.3 km/h 14.5 km/h 87 % 0.0 mm 0 W/m2
05:05 -2.4 °C -4.3 °C 1033.1 hPa NE 3.2 km/h 17.7 km/h 87 % 0.0 mm 0 W/m2
05:10 -2.4 °C -4.3 °C 1033.1 hPa NNE 9.7 km/h 17.7 km/h 87 % 0.0 mm 0 W/m2
05:15 -2.4 °C -4.3 °C 1033.1 hPa ENE 11.3 km/h 17.7 km/h 87 % 0.0 mm 0 W/m2
05:20 -2.4 °C -4.1 °C 1032.7 hPa NNE 6.4 km/h 17.7 km/h 88 % 0.0 mm 0 W/m2
05:25 -2.6 °C -4.3 °C 1032.7 hPa NNE 11.3 km/h 12.9 km/h 88 % 0.0 mm 0 W/m2
05:30 -2.7 °C -4.4 °C 1033.1 hPa NNE 1.6 km/h 14.5 km/h 88 % 0.0 mm 0 W/m2
05:35 -2.7 °C -4.4 °C 1033.1 hPa ENE 1.6 km/h 16.1 km/h 88 % 0.0 mm 0 W/m2
05:40 -2.6 °C -4.3 °C 1032.7 hPa North 8.0 km/h 16.1 km/h 88 % 0.0 mm 0 W/m2
05:45 -2.6 °C -4.3 °C 1033.1 hPa NE 6.4 km/h 16.1 km/h 88 % 0.0 mm 0 W/m2
05:50 -2.6 °C -4.3 °C 1032.7 hPa North 1.6 km/h 14.5 km/h 88 % 0.0 mm 0 W/m2
05:55 -2.7 °C -4.4 °C 1032.7 hPa NNE 6.4 km/h 14.5 km/h 88 % 0.0 mm 0 W/m2
06:00 -2.7 °C -4.4 °C 1032.7 hPa NE 6.4 km/h 12.9 km/h 88 % 0.0 mm 0 W/m2
06:05 -2.7 °C -4.4 °C 1032.7 hPa NE 11.3 km/h 22.5 km/h 88 % 0.0 mm 0 W/m2
06:10 -2.7 °C -4.4 °C 1032.7 hPa NNE 8.0 km/h 22.5 km/h 88 % 0.0 mm 0 W/m2
06:15 -2.7 °C -4.4 °C 1032.7 hPa NE 4.8 km/h 19.3 km/h 88 % 0.0 mm 0 W/m2
06:20 -2.7 °C -4.4 °C 1032.7 hPa NE 12.9 km/h 19.3 km/h 88 % 0.0 mm 0 W/m2
06:25 -2.7 °C -4.4 °C 1032.7 hPa NE 4.8 km/h 19.3 km/h 88 % 0.0 mm 0 W/m2
06:30 -2.7 °C -4.4 °C 1032.7 hPa NE 6.4 km/h 20.9 km/h 88 % 0.0 mm 0 W/m2
06:35 -2.7 °C -4.4 °C 1032.7 hPa NE 6.4 km/h 20.9 km/h 88 % 0.0 mm 0 W/m2
06:40 -2.7 °C -4.4 °C 1032.7 hPa NNE 11.3 km/h 19.3 km/h 88 % 0.0 mm 0 W/m2
06:45 -2.8 °C -4.5 °C 1032.7 hPa NE 6.4 km/h 17.7 km/h 88 % 0.0 mm 0 W/m2
06:50 -2.8 °C -4.5 °C 1032.7 hPa NNE 12.9 km/h 16.1 km/h 88 % 0.0 mm 0 W/m2
06:55 -2.7 °C -4.4 °C 1032.7 hPa NNE 3.2 km/h 19.3 km/h 88 % 0.0 mm 0 W/m2
07:00 -2.7 °C -4.4 °C 1032.7 hPa NE 14.5 km/h 19.3 km/h 88 % 0.0 mm 0 W/m2
07:05 -2.7 °C -4.4 °C 1032.7 hPa NNE 8.0 km/h 17.7 km/h 88 % 0.0 mm 0 W/m2
07:15 -2.7 °C -4.4 °C 1032.7 hPa NE 4.8 km/h 19.3 km/h 88 % 0.0 mm 0 W/m2
07:20 -2.7 °C -4.4 °C 1032.7 hPa NE 14.5 km/h 19.3 km/h 88 % 0.0 mm 0 W/m2
07:25 -2.7 °C -4.4 °C 1032.7 hPa NE 6.4 km/h 19.3 km/h 88 % 0.0 mm 0 W/m2
07:30 -2.7 °C -4.4 °C 1032.7 hPa NE 9.7 km/h 19.3 km/h 88 % 0.0 mm 0 W/m2
07:35 -2.7 °C -4.6 °C 1032.7 hPa NE 3.2 km/h 16.1 km/h 87 % 0.0 mm 0 W/m2
07:40 -2.7 °C -4.6 °C 1032.7 hPa NE 8.0 km/h 17.7 km/h 87 % 0.0 mm 0 W/m2
07:45 -2.7 °C -4.6 °C 1032.7 hPa NE 8.0 km/h 17.7 km/h 87 % 0.0 mm 0 W/m2
07:50 -2.8 °C -4.6 °C 1032.7 hPa NNE 3.2 km/h 17.7 km/h 87 % 0.0 mm 0 W/m2
07:55 -2.8 °C -4.6 °C 1032.7 hPa NNE 9.7 km/h 17.7 km/h 87 % 0.0 mm 0 W/m2
08:00 -2.8 °C -4.7 °C 1033.1 hPa NE 8.0 km/h 17.7 km/h 87 % 0.0 mm 0 W/m2
08:05 -2.8 °C -4.7 °C 1033.1 hPa ENE 14.5 km/h 17.7 km/h 87 % 0.0 mm 0 W/m2
08:10 -2.8 °C -4.7 °C 1033.1 hPa NE 4.8 km/h 17.7 km/h 87 % 0.0 mm 0 W/m2
08:15 -2.8 °C -4.7 °C 1033.1 hPa NE 9.7 km/h 17.7 km/h 87 % 0.0 mm 0 W/m2
08:20 -2.8 °C -4.6 °C 1033.1 hPa NE 9.7 km/h 17.7 km/h 87 % 0.0 mm 0 W/m2
08:25 -2.8 °C -4.6 °C 1033.1 hPa NNE 8.0 km/h 19.3 km/h 87 % 0.0 mm 0 W/m2
08:30 -2.7 °C -4.7 °C 1033.1 hPa North 8.0 km/h 19.3 km/h 86 % 0.0 mm 0 W/m2
08:35 -2.8 °C -4.7 °C 1033.1 hPa East 9.7 km/h 19.3 km/h 87 % 0.0 mm 0 W/m2
08:40 -2.8 °C -4.7 °C 1033.1 hPa North 8.0 km/h 17.7 km/h 87 % 0.0 mm 0 W/m2
08:45 -2.9 °C -4.8 °C 1033.1 hPa North 3.2 km/h 17.7 km/h 87 % 0.0 mm 0 W/m2
08:50 -3.0 °C -4.9 °C 1033.1 hPa NNE 4.8 km/h 16.1 km/h 87 % 0.0 mm 5 W/m2
08:55 -3.0 °C -4.9 °C 1033.1 hPa NNE 3.2 km/h 16.1 km/h 87 % 0.0 mm 7 W/m2
09:00 -2.9 °C -4.8 °C 1033.1 hPa North 11.3 km/h 19.3 km/h 87 % 0.0 mm 9 W/m2
09:05 -2.9 °C -4.9 °C 1033.1 hPa NNE 1.6 km/h 20.9 km/h 86 % 0.0 mm 11 W/m2
09:10 -2.9 °C -4.8 °C 1033.1 hPa NE 8.0 km/h 20.9 km/h 87 % 0.0 mm 14 W/m2
09:15 -2.9 °C -4.9 °C 1033.4 hPa NE 11.3 km/h 17.7 km/h 86 % 0.0 mm 16 W/m2
09:20 -2.8 °C -4.8 °C 1033.1 hPa ENE 14.5 km/h 19.3 km/h 86 % 0.0 mm 18 W/m2
09:25 -2.7 °C -4.7 °C 1033.1 hPa NE 11.3 km/h 20.9 km/h 86 % 0.0 mm 19 W/m2
09:30 -2.7 °C -4.7 °C 1033.1 hPa NE 9.7 km/h 25.7 km/h 86 % 0.0 mm 21 W/m2
09:35 -2.6 °C -4.8 °C 1033.1 hPa NNE 11.3 km/h 25.7 km/h 85 % 0.0 mm 25 W/m2
09:40 -2.6 °C -4.7 °C 1033.1 hPa NNW 12.9 km/h 22.5 km/h 85 % 0.0 mm 25 W/m2
09:45 -2.5 °C -4.7 °C 1033.1 hPa NNE 12.9 km/h 22.5 km/h 85 % 0.0 mm 26 W/m2
09:50 -2.4 °C -4.8 °C 1033.1 hPa NNE 11.3 km/h 24.1 km/h 84 % 0.0 mm 28 W/m2
09:55 -2.4 °C -4.7 °C 1033.1 hPa ENE 8.0 km/h 24.1 km/h 84 % 0.0 mm 30 W/m2
10:00 -2.3 °C -4.7 °C 1033.1 hPa ENE 8.0 km/h 19.3 km/h 84 % 0.0 mm 30 W/m2
10:05 -2.2 °C -4.5 °C 1033.1 hPa North 9.7 km/h 25.7 km/h 84 % 0.0 mm 30 W/m2
10:10 -2.0 °C -4.5 °C 1033.1 hPa NE 6.4 km/h 25.7 km/h 83 % 0.0 mm 32 W/m2
10:15 -1.8 °C -4.5 °C 1032.7 hPa NNE 4.8 km/h 25.7 km/h 82 % 0.0 mm 32 W/m2
10:20 -1.8 °C -4.4 °C 1033.1 hPa ENE 3.2 km/h 19.3 km/h 82 % 0.0 mm 33 W/m2
10:25 -1.7 °C -4.5 °C 1032.7 hPa NE 3.2 km/h 24.1 km/h 81 % 0.0 mm 37 W/m2
10:30 -1.5 °C -4.5 °C 1032.7 hPa NE 17.7 km/h 24.1 km/h 80 % 0.0 mm 179 W/m2
10:35 -1.3 °C -4.5 °C 1032.7 hPa ENE 14.5 km/h 22.5 km/h 79 % 0.0 mm 193 W/m2
10:40 -1.2 °C -4.5 °C 1032.7 hPa ENE 19.3 km/h 27.4 km/h 78 % 0.0 mm 213 W/m2
10:45 -1.0 °C -4.4 °C 1032.7 hPa NNE 9.7 km/h 27.4 km/h 78 % 0.0 mm 218 W/m2
10:50 -0.8 °C -4.3 °C 1032.7 hPa NNE 6.4 km/h 22.5 km/h 77 % 0.0 mm 220 W/m2
10:55 -0.6 °C -4.3 °C 1033.1 hPa NE 9.7 km/h 22.5 km/h 76 % 0.0 mm 232 W/m2
11:00 -0.4 °C -4.3 °C 1032.7 hPa East 8.0 km/h 22.5 km/h 75 % 0.0 mm 241 W/m2
11:05 -0.1 °C -4.0 °C 1033.1 hPa East 11.3 km/h 22.5 km/h 75 % 0.0 mm 250 W/m2
11:10 -0.1 °C -4.1 °C 1032.7 hPa NNE 6.4 km/h 24.1 km/h 74 % 0.0 mm 258 W/m2
11:15 -0.1 °C -4.5 °C 1032.7 hPa East 14.5 km/h 29.0 km/h 72 % 0.0 mm 269 W/m2
11:20 -0.1 °C -4.5 °C 1032.7 hPa ENE 14.5 km/h 29.0 km/h 72 % 0.0 mm 276 W/m2
11:25 0.1 °C -4.4 °C 1033.1 hPa ENE 17.7 km/h 25.7 km/h 72 % 0.0 mm 281 W/m2
11:30 0.3 °C -4.2 °C 1033.1 hPa NE 11.3 km/h 24.1 km/h 72 % 0.0 mm 290 W/m2
11:35 0.2 °C -4.2 °C 1033.1 hPa ENE 6.4 km/h 25.7 km/h 72 % 0.0 mm 295 W/m2
11:40 0.4 °C -4.3 °C 1032.7 hPa ENE 8.0 km/h 25.7 km/h 71 % 0.0 mm 306 W/m2
11:45 0.4 °C -4.2 °C 1032.7 hPa East 17.7 km/h 25.7 km/h 71 % 0.0 mm 308 W/m2
11:50 0.7 °C -4.0 °C 1032.7 hPa NE 8.0 km/h 25.7 km/h 71 % 0.0 mm 316 W/m2
11:55 0.7 °C -4.2 °C 1032.7 hPa ENE 17.7 km/h 25.7 km/h 70 % 0.0 mm 320 W/m2
12:00 0.7 °C -4.1 °C 1032.7 hPa ENE 12.9 km/h 25.7 km/h 70 % 0.0 mm 327 W/m2
12:05 0.9 °C -4.1 °C 1032.7 hPa NE 4.8 km/h 25.7 km/h 69 % 0.0 mm 329 W/m2
12:10 1.0 °C -4.4 °C 1032.4 hPa NE 17.7 km/h 29.0 km/h 67 % 0.0 mm 336 W/m2
12:15 1.1 °C -4.2 °C 1032.4 hPa ENE 16.1 km/h 29.0 km/h 68 % 0.0 mm 341 W/m2
12:20 1.3 °C -4.0 °C 1032.4 hPa NE 11.3 km/h 25.7 km/h 68 % 0.0 mm 345 W/m2
12:25 1.5 °C -4.0 °C 1032.4 hPa ENE 6.4 km/h 25.7 km/h 67 % 0.0 mm 346 W/m2
12:30 1.6 °C -4.1 °C 1032.1 hPa NNE 3.2 km/h 27.4 km/h 66 % 0.0 mm 352 W/m2
12:35 1.8 °C -4.1 °C 1032.1 hPa North 9.7 km/h 27.4 km/h 65 % 0.0 mm 353 W/m2
12:40 2.0 °C -4.1 °C 1032.1 hPa East 20.9 km/h 22.5 km/h 64 % 0.0 mm 359 W/m2
12:45 2.2 °C -4.2 °C 1031.7 hPa North 16.1 km/h 25.7 km/h 63 % 0.0 mm 359 W/m2
12:50 2.2 °C -4.1 °C 1031.7 hPa NE 8.0 km/h 25.7 km/h 63 % 0.0 mm 364 W/m2
12:55 2.3 °C -4.2 °C 1031.7 hPa NE 9.7 km/h 25.7 km/h 62 % 0.0 mm 366 W/m2
13:00 2.4 °C -4.2 °C 1031.7 hPa ENE 19.3 km/h 30.6 km/h 62 % 0.0 mm 366 W/m2
13:05 2.6 °C -4.0 °C 1031.7 hPa ENE 1.6 km/h 30.6 km/h 62 % 0.0 mm 369 W/m2
13:10 3.0 °C -4.0 °C 1031.4 hPa NNE 19.3 km/h 30.6 km/h 60 % 0.0 mm 369 W/m2
13:15 3.0 °C -4.0 °C 1031.4 hPa ENE 19.3 km/h 33.8 km/h 60 % 0.0 mm 367 W/m2
13:25 3.3 °C -3.5 °C 1031.0 hPa NNE 4.8 km/h 27.4 km/h 61 % 0.0 mm 367 W/m2
13:30 3.6 °C -3.4 °C 1031.0 hPa NE 19.3 km/h 25.7 km/h 60 % 0.0 mm 366 W/m2
13:35 3.6 °C -4.4 °C 1031.0 hPa NNE 9.7 km/h 29.0 km/h 56 % 0.0 mm 366 W/m2
13:40 3.7 °C -3.8 °C 1031.0 hPa NE 12.9 km/h 29.0 km/h 58 % 0.0 mm 364 W/m2
13:45 3.8 °C -4.0 °C 1030.7 hPa NE 11.3 km/h 27.4 km/h 57 % 0.0 mm 362 W/m2
13:50 3.8 °C -4.2 °C 1030.7 hPa NNE 9.7 km/h 27.4 km/h 56 % 0.0 mm 359 W/m2
14:00 4.1 °C -3.9 °C 1030.7 hPa NNE 14.5 km/h 27.4 km/h 56 % 0.0 mm 353 W/m2
14:05 4.2 °C -3.8 °C 1030.7 hPa ESE 8.0 km/h 29.0 km/h 56 % 0.0 mm 352 W/m2
14:10 4.3 °C -4.0 °C 1030.7 hPa NE 6.4 km/h 32.2 km/h 55 % 0.0 mm 346 W/m2
14:15 4.4 °C -3.8 °C 1030.4 hPa NE 8.0 km/h 33.8 km/h 55 % 0.0 mm 345 W/m2
14:20 4.5 °C -4.3 °C 1030.4 hPa ENE 4.8 km/h 33.8 km/h 53 % 0.0 mm 339 W/m2
14:25 4.5 °C -4.3 °C 1030.4 hPa NE 24.1 km/h 32.2 km/h 53 % 0.0 mm 332 W/m2
14:30 4.7 °C -4.4 °C 1030.4 hPa ENE 12.9 km/h 32.2 km/h 52 % 0.0 mm 329 W/m2
14:35 4.8 °C -4.0 °C 1030.4 hPa ENE 12.9 km/h 27.4 km/h 53 % 0.0 mm 323 W/m2
14:40 4.8 °C -4.0 °C 1030.4 hPa NE 6.4 km/h 30.6 km/h 53 % 0.0 mm 315 W/m2
14:45 5.0 °C -4.3 °C 1030.0 hPa NNE 6.4 km/h 30.6 km/h 51 % 0.0 mm 313 W/m2
14:50 4.9 °C -3.9 °C 1030.4 hPa NE 12.9 km/h 25.7 km/h 53 % 0.0 mm 301 W/m2
14:55 4.7 °C -4.1 °C 1030.0 hPa NE 20.9 km/h 32.2 km/h 53 % 0.0 mm 294 W/m2
15:00 4.8 °C -4.3 °C 1030.4 hPa NE 12.9 km/h 32.2 km/h 52 % 0.0 mm 288 W/m2
15:05 4.8 °C -5.3 °C 1030.4 hPa ENE 19.3 km/h 37.0 km/h 48 % 0.0 mm 281 W/m2
15:10 4.9 °C -3.9 °C 1030.4 hPa NE 6.4 km/h 37.0 km/h 53 % 0.0 mm 276 W/m2
15:15 4.9 °C -5.2 °C 1030.4 hPa East 25.7 km/h 30.6 km/h 48 % 0.0 mm 271 W/m2
15:20 4.8 °C -4.5 °C 1030.4 hPa NE 19.3 km/h 30.6 km/h 51 % 0.0 mm 255 W/m2
15:25 5.0 °C -3.5 °C 1030.4 hPa NE 6.4 km/h 30.6 km/h 54 % 0.0 mm 250 W/m2
15:30 4.8 °C -4.7 °C 1030.4 hPa North 8.0 km/h 35.4 km/h 50 % 0.0 mm 243 W/m2
15:35 4.8 °C -4.2 °C 1030.4 hPa ENE 11.3 km/h 35.4 km/h 52 % 0.0 mm 232 W/m2
15:40 4.8 °C -4.3 °C 1030.4 hPa NE 6.4 km/h 30.6 km/h 52 % 0.0 mm 221 W/m2
15:45 4.8 °C -3.8 °C 1030.4 hPa NE 3.2 km/h 27.4 km/h 54 % 0.0 mm 211 W/m2
15:50 4.8 °C -3.8 °C 1030.4 hPa ENE 14.5 km/h 25.7 km/h 54 % 0.0 mm 202 W/m2
15:55 4.7 °C -4.1 °C 1030.0 hPa NE 6.4 km/h 25.7 km/h 53 % 0.0 mm 192 W/m2
16:00 4.7 °C -4.4 °C 1030.4 hPa East 11.3 km/h 30.6 km/h 52 % 0.0 mm 183 W/m2
16:05 4.4 °C -4.8 °C 1030.4 hPa East 14.5 km/h 30.6 km/h 51 % 0.0 mm 171 W/m2
16:10 4.4 °C -4.6 °C 1030.4 hPa NE 11.3 km/h 25.7 km/h 52 % 0.0 mm 156 W/m2
16:15 4.3 °C -4.7 °C 1030.4 hPa NE 14.5 km/h 27.4 km/h 52 % 0.0 mm 146 W/m2
16:20 4.3 °C -5.0 °C 1030.4 hPa ENE 11.3 km/h 27.4 km/h 51 % 0.0 mm 134 W/m2
16:45 3.7 °C -5.3 °C 1030.4 hPa NE 4.8 km/h 25.7 km/h 52 % 0.0 mm 30 W/m2
16:50 3.4 °C -5.3 °C 1030.4 hPa ENE 8.0 km/h 22.5 km/h 53 % 0.0 mm 30 W/m2
16:55 3.3 °C -5.6 °C 1030.4 hPa NE 9.7 km/h 27.4 km/h 52 % 0.0 mm 26 W/m2
17:00 3.3 °C -5.4 °C 1030.4 hPa ENE 16.1 km/h 27.4 km/h 53 % 0.0 mm 25 W/m2
17:10 2.9 °C -5.0 °C 1030.4 hPa NE 9.7 km/h 20.9 km/h 56 % 0.0 mm 21 W/m2
17:20 2.8 °C -4.9 °C 1030.4 hPa ENE 14.5 km/h 32.2 km/h 57 % 0.0 mm 18 W/m2
17:25 2.7 °C -5.0 °C 1030.4 hPa ESE 17.7 km/h 30.6 km/h 57 % 0.0 mm 16 W/m2
17:30 2.7 °C -5.0 °C 1030.4 hPa NE 17.7 km/h 30.6 km/h 57 % 0.0 mm 12 W/m2
17:35 2.6 °C -4.8 °C 1030.4 hPa NNE 9.7 km/h 24.1 km/h 58 % 0.0 mm 11 W/m2
17:40 2.5 °C -4.9 °C 1030.4 hPa ENE 16.1 km/h 33.8 km/h 58 % 0.0 mm 9 W/m2
17:45 2.4 °C -5.0 °C 1030.4 hPa East 17.7 km/h 33.8 km/h 58 % 0.0 mm 7 W/m2
17:50 2.3 °C -4.9 °C 1030.4 hPa East 17.7 km/h 27.4 km/h 59 % 0.0 mm 5 W/m2
17:55 2.3 °C -4.9 °C 1030.4 hPa ENE 12.9 km/h 29.0 km/h 59 % 0.0 mm 0 W/m2
18:00 2.2 °C -4.8 °C 1030.4 hPa ENE 9.7 km/h 29.0 km/h 60 % 0.0 mm 0 W/m2
18:05 2.2 °C -4.8 °C 1030.4 hPa East 14.5 km/h 27.4 km/h 60 % 0.0 mm 0 W/m2
18:10 1.9 °C -4.8 °C 1030.4 hPa ENE 12.9 km/h 27.4 km/h 61 % 0.0 mm 0 W/m2
18:15 1.8 °C -4.7 °C 1030.4 hPa East 12.9 km/h 25.7 km/h 62 % 0.0 mm 0 W/m2
18:20 1.9 °C -4.6 °C 1030.7 hPa ENE 6.4 km/h 25.7 km/h 62 % 0.0 mm 0 W/m2
18:25 1.8 °C -4.5 °C 1030.7 hPa ENE 11.3 km/h 22.5 km/h 63 % 0.0 mm 0 W/m2
18:30 1.6 °C -4.7 °C 1030.7 hPa ENE 8.0 km/h 20.9 km/h 63 % 0.0 mm 0 W/m2
18:35 1.6 °C -4.7 °C 1030.7 hPa NE 3.2 km/h 20.9 km/h 63 % 0.0 mm 0 W/m2
18:40 1.6 °C -4.7 °C 1030.7 hPa ENE 14.5 km/h 20.9 km/h 63 % 0.0 mm 0 W/m2
18:45 1.5 °C -4.6 °C 1030.7 hPa East 11.3 km/h 20.9 km/h 64 % 0.0 mm 0 W/m2
18:50 1.3 °C -4.5 °C 1030.7 hPa ENE 6.4 km/h 22.5 km/h 65 % 0.0 mm 0 W/m2
19:00 1.1 °C -4.6 °C 1031.0 hPa East 9.7 km/h 22.5 km/h 66 % 0.0 mm 0 W/m2
19:05 1.2 °C -4.5 °C 1031.0 hPa NE 6.4 km/h 22.5 km/h 66 % 0.0 mm 0 W/m2
19:10 1.1 °C -4.5 °C 1031.0 hPa NE 3.2 km/h 22.5 km/h 66 % 0.0 mm 0 W/m2
19:15 1.0 °C -4.4 °C 1031.0 hPa NNE 8.0 km/h 17.7 km/h 67 % 0.0 mm 0 W/m2
19:20 0.8 °C -4.4 °C 1031.0 hPa NE 12.9 km/h 19.3 km/h 68 % 0.0 mm 0 W/m2
19:25 0.9 °C -4.4 °C 1031.0 hPa NNE 3.2 km/h 22.5 km/h 68 % 0.0 mm 0 W/m2
19:30 0.8 °C -4.5 °C 1031.0 hPa NE 4.8 km/h 22.5 km/h 68 % 0.0 mm 0 W/m2
19:35 0.8 °C -4.4 °C 1031.0 hPa ENE 4.8 km/h 16.1 km/h 68 % 0.0 mm 0 W/m2
19:40 0.8 °C -4.4 °C 1031.0 hPa ENE 6.4 km/h 14.5 km/h 68 % 0.0 mm 0 W/m2
19:45 0.7 °C -4.5 °C 1031.0 hPa ENE 4.8 km/h 16.1 km/h 68 % 0.0 mm 0 W/m2
19:50 0.7 °C -4.4 °C 1031.0 hPa East 14.5 km/h 19.3 km/h 69 % 0.0 mm 0 W/m2
19:55 0.7 °C -4.5 °C 1031.0 hPa East 14.5 km/h 19.3 km/h 68 % 0.0 mm 0 W/m2
20:00 0.6 °C -4.6 °C 1031.0 hPa ENE 16.1 km/h 20.9 km/h 68 % 0.0 mm 0 W/m2
20:05 0.6 °C -4.6 °C 1031.0 hPa ENE 14.5 km/h 20.9 km/h 68 % 0.0 mm 0 W/m2
20:10 0.5 °C -4.5 °C 1031.4 hPa ENE 14.5 km/h 22.5 km/h 69 % 0.0 mm 0 W/m2
20:15 0.5 °C -4.5 °C 1031.4 hPa ENE 14.5 km/h 22.5 km/h 69 % 0.0 mm 0 W/m2
20:20 0.5 °C -4.5 °C 1031.4 hPa ENE 16.1 km/h 19.3 km/h 69 % 0.0 mm 0 W/m2
20:25 0.4 °C -4.6 °C 1031.4 hPa East 6.4 km/h 19.3 km/h 69 % 0.0 mm 0 W/m2
20:30 0.3 °C -4.5 °C 1031.4 hPa ENE 8.0 km/h 20.9 km/h 70 % 0.0 mm 0 W/m2
20:35 0.3 °C -4.4 °C 1031.4 hPa ENE 14.5 km/h 20.9 km/h 71 % 0.0 mm 0 W/m2
20:40 0.2 °C -4.3 °C 1031.4 hPa East 9.7 km/h 19.3 km/h 72 % 0.0 mm 0 W/m2
20:45 0.1 °C -4.3 °C 1031.4 hPa ENE 11.3 km/h 19.3 km/h 72 % 0.0 mm 0 W/m2
20:50 0.1 °C -4.4 °C 1031.4 hPa ENE 6.4 km/h 17.7 km/h 72 % 0.0 mm 0 W/m2
20:55 0.1 °C -4.4 °C 1031.4 hPa NE 11.3 km/h 17.7 km/h 72 % 0.0 mm 0 W/m2
21:00 0.1 °C -4.5 °C 1031.4 hPa ENE 8.0 km/h 17.7 km/h 71 % 0.0 mm 0 W/m2
21:05 0.1 °C -4.5 °C 1031.4 hPa ENE 12.9 km/h 22.5 km/h 71 % 0.0 mm 0 W/m2
21:10 0.1 °C -4.5 °C 1031.4 hPa ENE 14.5 km/h 22.5 km/h 71 % 0.0 mm 0 W/m2
21:15 0.1 °C -4.6 °C 1031.4 hPa ENE 24.1 km/h 24.1 km/h 71 % 0.0 mm 0 W/m2
21:20 0.1 °C -4.6 °C 1031.7 hPa ENE 14.5 km/h 24.1 km/h 71 % 0.0 mm 0 W/m2
21:25 -0.1 °C -4.5 °C 1031.7 hPa East 16.1 km/h 24.1 km/h 72 % 0.0 mm 0 W/m2
21:30 -0.2 °C -4.6 °C 1031.7 hPa ENE 6.4 km/h 19.3 km/h 72 % 0.0 mm 0 W/m2
21:35 -0.2 °C -4.6 °C 1031.7 hPa ENE 19.3 km/h 24.1 km/h 72 % 0.0 mm 0 W/m2
21:40 -0.2 °C -4.6 °C 1031.7 hPa East 12.9 km/h 24.1 km/h 72 % 0.0 mm 0 W/m2
21:45 -0.2 °C -4.7 °C 1031.7 hPa ENE 20.9 km/h 22.5 km/h 72 % 0.0 mm 0 W/m2
21:50 -0.2 °C -4.7 °C 1031.7 hPa East 11.3 km/h 22.5 km/h 72 % 0.0 mm 0 W/m2
21:55 -0.3 °C -4.7 °C 1031.7 hPa NE 9.7 km/h 20.9 km/h 72 % 0.0 mm 0 W/m2
22:00 -0.3 °C -4.7 °C 1031.7 hPa East 14.5 km/h 20.9 km/h 72 % 0.0 mm 0 W/m2
22:05 -0.3 °C -4.6 °C 1031.7 hPa NE 11.3 km/h 20.9 km/h 73 % 0.0 mm 0 W/m2
22:10 -0.4 °C -4.6 °C 1031.7 hPa East 16.1 km/h 19.3 km/h 73 % 0.0 mm 0 W/m2
22:15 -0.4 °C -4.7 °C 1031.7 hPa ENE 11.3 km/h 19.3 km/h 73 % 0.0 mm 0 W/m2
22:20 -0.5 °C -4.7 °C 1031.7 hPa ENE 6.4 km/h 17.7 km/h 73 % 0.0 mm 0 W/m2
22:25 -0.6 °C -4.6 °C 1031.7 hPa East 9.7 km/h 17.7 km/h 74 % 0.0 mm 0 W/m2
22:30 -0.6 °C -4.6 °C 1031.7 hPa ENE 11.3 km/h 17.7 km/h 74 % 0.0 mm 0 W/m2
22:35 -0.6 °C -4.8 °C 1031.7 hPa East 4.8 km/h 24.1 km/h 73 % 0.0 mm 0 W/m2
22:40 -0.6 °C -4.7 °C 1031.7 hPa ENE 6.4 km/h 24.1 km/h 74 % 0.0 mm 0 W/m2
22:45 -0.7 °C -4.8 °C 1032.1 hPa ENE 6.4 km/h 16.1 km/h 74 % 0.0 mm 0 W/m2
22:50 -0.7 °C -4.6 °C 1032.1 hPa ENE 12.9 km/h 17.7 km/h 75 % 0.0 mm 0 W/m2
22:55 -0.8 °C -4.7 °C 1032.1 hPa East 11.3 km/h 19.3 km/h 75 % 0.0 mm 0 W/m2
23:00 -0.8 °C -4.7 °C 1032.1 hPa East 12.9 km/h 19.3 km/h 75 % 0.0 mm 0 W/m2
23:05 -0.8 °C -4.7 °C 1032.1 hPa ENE 4.8 km/h 17.7 km/h 75 % 0.0 mm 0 W/m2
23:10 -0.9 °C -4.8 °C 1032.1 hPa East 3.2 km/h 20.9 km/h 75 % 0.0 mm 0 W/m2
23:15 -0.9 °C -4.6 °C 1032.1 hPa East 12.9 km/h 20.9 km/h 76 % 0.0 mm 0 W/m2
23:20 -1.0 °C -4.7 °C 1032.1 hPa NE 6.4 km/h 16.1 km/h 76 % 0.0 mm 0 W/m2
23:25 -1.1 °C -4.8 °C 1032.1 hPa East 4.8 km/h 16.1 km/h 76 % 0.0 mm 0 W/m2
23:30 -1.2 °C -4.7 °C 1032.1 hPa ENE 14.5 km/h 16.1 km/h 77 % 0.0 mm 0 W/m2
23:35 -1.2 °C -4.7 °C 1032.1 hPa ENE 11.3 km/h 16.1 km/h 77 % 0.0 mm 0 W/m2
23:40 -1.2 °C -4.7 °C 1032.1 hPa ENE 11.3 km/h 16.1 km/h 77 % 0.0 mm 0 W/m2
23:45 -1.2 °C -4.7 °C 1032.1 hPa ENE 14.5 km/h 16.1 km/h 77 % 0.0 mm 0 W/m2
23:50 -1.3 °C -4.8 °C 1032.1 hPa ENE 4.8 km/h 16.1 km/h 77 % 0.0 mm 0 W/m2
23:55 -1.3 °C -4.7 °C 1032.1 hPa NE 9.7 km/h 14.5 km/h 78 % 0.0 mm 0 W/m2
Avec l'autorisation de Weather Underground - 1.75 mb